User: anonymous   Login
Location: *
(51.5000°N, 0.1100°W)
Time: 00:09:41
(UTC+00:00)
Language:

BREEZE-M DEB (TANK) - Orbit

View from above orbital plane
View from above orbital plane
View from above satellite
View from above satellite

Ground track
Ground track

The orbit data is extracted from the following two-line orbital elements,

1 29271U 06032C   24194.24594121  .00003772  00000-0  71980-3 0  9997
2 29271  49.4553 138.3114 5222365 152.5079 249.2498  5.24690231328652
Epoch (UTC): 12 July 2024 05:54:09
Eccentricity: 0.5222365
inclination: 49.4553°
perigee height: 305 km
apogee height: 14917 km
right ascension of ascending node: 138.3114°
argument of perigee: 152.5079°
revolutions per day: 5.24690231
mean anomaly at epoch: 249.2498°
orbit number at epoch: 32865

The dashed part of the orbit path shows where the satellite is in the earth's shadow,  

DLR